Flag for United Kingdom Weather past 2 weeks in Newport, Wales, United Kingdom

Now
66 °F

Scattered clouds.


Feels Like: 66 °F
Forecast: 54 / 72 °F
Wind: 12 mph from West

Location: Bristol / Lulsgate

Current Time: Jul 30, 2014 at 11:17:33 AM

Latest Report: Jul 30, 2014 at 10:50 AM


Visibility: N/A

Pressure: 30.07 "Hg

Humidity: 60%

Dew point: 52 °F

Location of NewportLocation

Historic Weather in Newport — Graph

°F

Newport temperature yesterday

Maximum temperature yesterday: 73 °F (at 2:20 PM)
Minimum temperature yesterday: 57 °F (at 5:20 AM)
Average temperature yesterday: 65 °F

Past Weeks' High & Low Weather Summary

 TemperatureHumidityPressure
High81 °F (Jul 23, 4:20 PM)100% (Jul 17, 12:20 AM)30.24 "Hg (Jul 17, 12:20 AM)
Low54 °F (Jul 30, 3:50 AM)32% (Jul 24, 6:20 PM)29.74 "Hg (Jul 19, 2:50 PM)
Average66 °F74%30.04 "Hg
* Reported Jul 15 10:20 AM — Jul 30 10:20 AM, Newport, Weather by CustomWeather, © 2014

Note: Actual official high and low records may vary slightly from our data, if they occured in-between our weather recording intervals... More about our weather records

Advertising

Newport weather history for previous 24 hours

 ConditionsComfort  
Time TempWeatherWind HumidityBarometerVisibility
10:20 AM
Jul 30
66 °FPassing clouds.13 mph56%30.07 "HgN/A
9:50 AM66 °FPassing clouds.10 mph56%30.07 "HgN/A
9:20 AM64 °FPassing clouds.10 mph64%30.07 "HgN/A
8:50 AM63 °FPassing clouds.8 mph73%30.07 "HgN/A
8:20 AM61 °FPassing clouds.8 mph83%30.07 "HgN/A
7:50 AM59 °FPassing clouds.7 mph82%30.07 "HgN/A
7:20 AM59 °FPassing clouds.5 mph82%30.04 "HgN/A
6:50 AM57 °FSunny.5 mph82%30.04 "Hg10 mi
6:20 AM55 °FClear.5 mph82%30.04 "Hg10 mi
5:50 AM54 °FClear.3 mph88%30.04 "Hg10 mi
5:20 AM55 °FClear.3 mph82%30.04 "Hg10 mi
4:50 AM55 °FClear.6 mph82%30.04 "Hg10 mi
4:20 AM54 °FPassing clouds.6 mph88%30.04 "HgN/A
3:50 AM54 °FPassing clouds.6 mph88%30.04 "HgN/A
3:20 AM55 °FPassing clouds.5 mph82%30.04 "HgN/A
2:50 AM55 °FPassing clouds.3 mph82%30.07 "HgN/A
2:20 AM55 °FClear.6 mph82%30.04 "Hg10 mi
1:50 AM55 °FClear.5 mph82%30.04 "Hg10 mi
1:20 AM57 °FClear.7 mph82%30.04 "Hg10 mi
12:50 AM57 °FClear.8 mph82%30.07 "Hg10 mi
12:20 AM59 °FClear.7 mph77%30.07 "Hg10 mi
11:50 PM
Jul 29
59 °FPassing clouds.6 mph77%30.07 "HgN/A
11:20 PM61 °FPassing clouds.7 mph72%30.04 "HgN/A
10:50 PM61 °FPassing clouds.7 mph72%30.04 "HgN/A
10:20 PM63 °FPassing clouds.7 mph73%30.04 "HgN/A
9:50 PM64 °FBroken clouds.9 mph68%30.04 "HgN/A
9:20 PM66 °FBroken clouds.9 mph68%30.04 "HgN/A
8:50 PM66 °FScattered clouds.9 mph68%30.04 "HgN/A
8:20 PM66 °FScattered clouds.8 mph68%30.01 "HgN/A
7:50 PM66 °FScattered clouds.12 mph78%30.01 "HgN/A
7:20 PM66 °FPartly sunny.12 mph78%30.01 "HgN/A
6:50 PM66 °FPartly sunny.14 mph78%30.01 "HgN/A
6:20 PM66 °FPartly sunny.14 mph78%30.01 "HgN/A
5:50 PM70 °FScattered clouds.13 mph69%30.04 "HgN/A
5:20 PM68 °FScattered clouds.13 mph73%30.04 "HgN/A
4:50 PM68 °FScattered clouds.15 mph73%30.04 "HgN/A
4:20 PM70 °FPassing clouds.17 mph64%30.04 "HgN/A
3:50 PM70 °FPassing clouds.15 mph69%30.04 "HgN/A
3:20 PM72 °FPassing clouds.15 mph65%30.04 "HgN/A
2:50 PM73 °FScattered clouds.13 mph61%30.04 "HgN/A
2:20 PM73 °FPassing clouds.13 mph57%30.04 "HgN/A
1:50 PM72 °FScattered clouds.9 mph61%30.04 "HgN/A
1:20 PM72 °FPassing clouds.10 mph57%30.07 "HgN/A
12:50 PM72 °FPassing clouds.10 mph57%30.07 "HgN/A
12:20 PM72 °FPassing clouds.9 mph57%30.07 "HgN/A
11:50 AM72 °FPassing clouds.8 mph53%30.07 "HgN/A
11:20 AM70 °FPassing clouds.8 mph57%30.07 "HgN/A
Weather by CustomWeather, © 2014

See weather overviewHow to use our weather pages